Wind_Speed
1 4 6 11 1 3 3 6 10 9 3 4 8 10 11 12 11 10 8 6 3 1 3 5 7 9 10 13 14 16 17 20 23 22 21 20 19 20 21 26 29 30 31 36
3 3 5 4 3 5 7 11 8 6 1 4 8 9 9 13 12 10 9 7 3 1 3 6 7 8 9 11 14 14 16 19 22 22 20 20 19 18 25 27 26 27 27 28
2 6 7 6 7 9 3 4 9 5 7 1 8 9 13 12 11 10 9 7 4 1 2 5 8 8 9 12 13 12 15 17 20 22 23 25 22 24 28 31 29 29 29 26
4 6 6 7 6 1 5 1 6 10 10 3 6 4 14 16 14 15 13 11 7 3 1 5 7 10 9 11 11 11 13 15 19 21 23 22 22 24 24 25 28 28 28 28
4 7 7 7 4 1 4 3 4 2 2 2 8 5 1 16 16 17 18 13 8 4 0 4 6 9 9 11 11 10 11 14 17 19 21 22 23 24 23 25 26 27 28 27
5 2 2 4 7 2 13 9 7 3 1 4 8 7 8 11 21 17 20 15 11 6 2 2 5 7 7 8 8 9 11 13 16 18 20 21 23 24 24 25 25 26 27 28
5 4 2 8 9 7 3 7 2 2 3 4 3 5 11 15 4 19 20 17 12 8 3 2 3 4 6 6 8 9 10 13 15 17 19 21 23 23 22 23 24 25 25 26
9 5 12 10 2 3 11 3 3 5 4 1 3 7 4 2 9 9 17 16 13 9 5 3 1 2 5 6 7 8 10 12 15 16 18 21 21 21 20 21 22 23 24 23
8 4 4 2 2 1 5 6 3 4 2 2 6 5 5 8 11 15 17 17 14 11 7 5 3 3 4 5 6 8 9 13 15 16 18 19 19 17 18 19 20 21 22 24
6 6 2 4 3 3 2 5 3 2 4 5 5 6 9 13 18 16 20 21 17 13 10 7 5 5 6 6 7 8 10 13 15 16 17 17 17 16 16 18 19 20 21 22
7 3 5 5 11 12 5 4 4 3 3 4 4 4 2 14 18 21 25 23 19 15 12 9 8 7 7 6 7 9 12 15 15 16 16 17 17 18 18 17 18 18 19 21
3 3 5 5 3 3 7 6 9 4 6 2 2 8 1 3 13 21 23 22 19 16 13 11 10 9 8 8 8 10 13 14 16 17 18 19 20 21 21 20 18 18 18 19
9 4 4 2 2 3 7 12 8 2 2 8 4 5 2 6 9 18 22 23 20 18 15 13 12 10 9 9 9 12 14 15 18 21 22 23 25 26 26 25 23 20 19 18
7 2 4 9 3 6 7 15 19 10 5 6 17 11 6 9 11 18 22 23 21 20 17 15 13 12 11 10 11 13 15 18 20 22 23 24 25 25 26 28 27 26 23 21
4 5 3 3 3 3 4 8 18 19 23 12 20 18 20 15 14 26 26 24 23 21 19 18 15 13 12 11 13 15 17 17 18 19 20 21 22 23 24 24 24 24 23 22
3 3 2 3 4 5 5 12 16 23 18 24 25 22 6 7 18 20 28 28 27 27 25 22 19 16 13 12 13 16 15 13 14 16 18 20 21 23 23 23 23 22 19 19
8 7 4 5 3 6 8 20 25 18 13 22 20 29 5 7 20 28 32 37 35 32 27 25 21 17 14 12 13 13 10 9 12 15 17 19 21 22 22 23 22 21 18 15
10 7 2 2 2 10 3 3 12 23 22 24 17 9 12 13 24 24 31 37 36 32 27 26 22 18 14 12 11 9 5 7 10 13 15 17 19 21 21 22 21 19 18 15
8 6 5 4 7 13 17 9 9 13 16 27 26 23 12 10 10 14 26 29 31 31 26 24 19 16 13 12 9 6 4 5 8 11 13 16 19 20 21 21 21 20 18 15
2 5 8 4 5 8 4 2 7 9 11 19 28 23 23 19 8 10 29 29 29 27 27 24 20 15 13 11 9 5 2 3 6 8 12 15 17 19 21 22 22 21 19 17
5 3 14 11 8 9 5 12 14 6 5 3 24 27 28 13 16 9 24 33 28 28 28 24 19 14 13 11 10 6 3 2 4 7 10 12 15 18 20 21 22 22 20 18
13 12 7 7 8 17 18 10 9 3 3 3 9 23 31 21 17 19 27 34 33 32 29 24 19 16 14 14 11 7 5 2 2 5 8 11 13 16 18 20 21 21 21 20
8 8 9 14 9 4 41 8 29 8 5 7 14 21 30 28 24 26 31 33 32 30 26 22 19 18 17 15 13 10 7 4 0 3 6 8 11 14 16 18 20 21 22 21
7 9 5 4 11 8 25 31 12 18 8 9 15 22 29 32 29 29 31 32 32 30 26 23 22 21 20 17 15 12 9 6 2 1 4 6 9 11 13 16 18 19 21 22
7 16 11 8 7 3 19 33 35 26 20 13 16 23 28 30 33 30 31 31 30 28 25 23 22 21 20 19 16 14 11 8 4 1 2 5 7 9 10 12 15 17 18 20
11 10 11 9 17 19 11 33 37 34 32 23 23 27 29 29 31 30 28 28 27 25 24 25 24 23 21 20 18 16 13 10 7 4 3 4 6 8 10 10 10 13 15 16
Wind_Direction
59 201 177 178 349 307 221 171 141 123 127 148 171 163 170 174 183 181 173 165 138 68 27 14 8 7 10 11 9 6 8 9 9 8 5 359 356 353 354 357 9 7 4 2
185 175 115 111 129 142 171 152 127 106 116 222 176 186 187 191 194 197 187 177 171 92 17 3 356 359 360 1 355 359 3 4 8 11 4 5 2 2 0 3 359 4 4 2
215 119 142 156 137 130 87 209 161 139 148 162 185 224 202 200 197 196 198 189 187 156 32 9 8 359 351 347 347 355 359 360 5 8 7 8 8 8 6 6 7 6 7 5
86 148 158 156 143 259 171 105 139 141 181 231 204 286 197 193 203 201 193 195 189 181 29 2 359 354 343 341 343 347 354 355 1 4 7 10 5 7 2 355 357 2 8 5
98 155 160 168 88 20 101 126 86 96 226 299 194 255 17 178 210 207 199 194 193 186 150 342 350 350 344 335 334 343 348 345 354 359 3 4 1 358 355 353 354 354 359 5
77 46 354 75 72 92 135 120 84 77 315 250 217 216 200 188 222 206 195 195 190 187 206 336 347 357 350 340 340 338 339 343 346 355 359 3 360 357 353 350 351 353 355 358
135 136 105 156 101 124 200 168 142 218 199 253 139 216 263 194 209 203 190 193 190 186 197 274 334 4 344 337 332 332 332 337 346 352 358 360 357 354 357 358 357 355 353 356
169 197 178 168 279 186 193 213 244 257 218 123 167 230 243 240 159 187 186 190 189 185 195 215 262 337 321 322 324 327 334 342 347 350 353 353 355 355 357 359 0 360 356 353
185 130 101 87 113 355 173 215 54 97 89 280 214 255 204 170 184 186 186 191 195 192 193 195 219 249 285 303 316 325 334 337 340 344 347 347 348 351 354 357 359 2 1 357
155 113 209 116 137 88 263 131 138 207 236 249 196 257 242 197 202 197 200 202 199 196 194 195 211 239 261 280 302 314 327 331 333 336 341 344 345 346 347 349 352 356 358 359
157 144 140 165 205 179 161 200 208 287 221 251 286 234 160 199 201 199 202 200 199 198 195 196 208 231 248 264 288 310 325 327 329 333 337 338 336 335 336 337 340 346 351 354
147 86 162 187 74 2 250 228 182 218 188 235 316 262 182 158 188 196 195 194 195 194 191 197 208 223 240 254 281 307 317 319 322 325 327 327 325 323 323 324 326 329 336 343
177 174 135 163 187 182 213 208 224 73 7 202 221 247 176 182 195 191 187 186 186 187 188 196 207 221 237 255 287 303 310 315 319 318 318 319 317 314 311 310 310 312 314 324
149 157 216 235 65 122 196 198 201 194 212 228 229 252 194 197 190 186 189 187 187 189 192 198 205 218 233 257 283 296 305 313 317 320 324 328 326 322 315 308 301 299 301 305
184 201 174 235 203 210 234 206 202 207 222 217 254 225 239 201 189 194 189 184 186 190 194 201 204 214 231 260 284 297 306 318 325 333 339 344 345 342 338 331 319 304 292 291
180 165 145 252 208 230 244 244 237 225 228 245 254 263 212 217 196 187 189 187 189 193 203 208 209 218 235 264 285 298 310 326 338 343 346 348 346 344 341 340 336 326 311 293
161 147 155 259 6 313 255 223 225 220 209 222 230 241 147 180 186 193 192 196 199 205 208 211 214 222 239 263 282 293 310 330 343 347 349 350 350 349 347 345 342 338 332 317
152 139 121 285 357 258 314 144 236 226 231 223 247 241 189 193 201 214 215 212 206 210 209 209 212 220 239 259 273 280 301 332 347 352 354 353 354 354 354 352 349 345 339 332
324 134 158 224 200 293 292 213 191 188 238 232 228 233 192 164 175 227 215 214 216 212 208 209 211 219 239 254 255 250 289 335 352 359 356 358 360 359 -0 1 359 356 350 339
20 5 190 158 217 251 60 181 109 131 274 222 214 226 197 155 209 227 205 198 200 202 202 202 208 219 234 237 229 228 269 329 357 5 3 4 5 3 8 8 5 3 358 353
153 163 208 201 229 268 170 159 155 161 257 324 208 208 173 189 215 177 186 192 193 192 194 198 207 217 222 218 214 211 229 304 359 13 10 10 10 9 14 14 11 7 6 1
172 170 190 207 212 254 142 135 194 184 178 235 202 191 181 183 173 167 178 182 183 187 190 197 205 211 209 204 203 200 210 238 4 16 16 15 14 14 17 18 17 14 10 12
204 198 171 192 213 127 175 195 204 183 195 201 186 185 180 177 174 169 170 178 182 187 189 195 203 203 202 201 196 198 203 207 149 17 20 16 17 17 18 20 18 19 15 16
236 195 226 146 214 203 205 215 225 216 212 207 194 182 189 181 177 170 171 176 180 185 190 197 201 199 200 199 195 196 200 199 188 11 8 7 15 19 17 14 17 17 17 16
177 154 194 255 246 264 232 225 225 222 217 209 197 194 188 184 178 178 177 181 184 189 192 200 201 198 200 199 197 197 201 197 196 240 329 344 2 16 16 10 7 11 14 15
185 180 188 215 201 211 235 233 222 221 217 213 204 188 189 191 187 183 185 188 191 193 196 199 197 198 201 199 200 201 202 201 204 220 269 314 339 353 358 1 3 358 0 3
Height
1533 1530 1530 1533 1540 1541 1533 1537 1546 1559 1566 1563 1563 1568 1571 1575 1576 1577 1577 1577 1578 1578 1577 1575 1572 1570 1567 1563 1561 1557 1554 1550 1547 1543 1539 1536 1532 1528 1523 1517 1510 1507 1502 1497
1533 1529 1543 1544 1543 1541 1540 1541 1551 1565 1567 1565 1566 1567 1569 1572 1572 1573 1575 1576 1577 1577 1576 1575 1573 1569 1567 1562 1559 1557 1555 1551 1547 1543 1541 1536 1532 1529 1523 1517 1513 1508 1503 1498
1526 1539 1544 1542 1543 1543 1546 1543 1552 1551 1564 1564 1562 1562 1567 1569 1571 1574 1574 1574 1575 1575 1574 1573 1571 1569 1566 1562 1558 1556 1553 1551 1548 1545 1540 1536 1532 1527 1523 1519 1516 1510 1505 1499
1538 1545 1544 1543 1544 1546 1550 1556 1553 1557 1555 1551 1559 1549 1554 1558 1566 1568 1569 1570 1572 1573 1572 1570 1568 1565 1564 1561 1558 1556 1554 1551 1548 1544 1540 1535 1532 1526 1524 1521 1518 1513 1507 1502
1541 1545 1545 1544 1547 1550 1553 1560 1560 1559 1556 1560 1561 1561 1530 1547 1555 1558 1563 1566 1568 1568 1568 1568 1566 1563 1562 1559 1558 1556 1554 1551 1548 1544 1540 1535 1532 1528 1524 1521 1517 1512 1508 1503
1547 1549 1549 1550 1555 1555 1559 1561 1562 1562 1562 1563 1544 1551 1527 1542 1541 1547 1555 1560 1563 1564 1565 1565 1563 1562 1561 1558 1557 1555 1553 1550 1547 1544 1540 1535 1533 1529 1524 1520 1516 1511 1507 1503
1545 1548 1552 1553 1554 1561 1559 1556 1560 1562 1567 1550 1560 1561 1524 1531 1536 1538 1548 1555 1559 1560 1562 1562 1561 1560 1559 1558 1556 1554 1552 1549 1546 1543 1539 1535 1533 1530 1525 1520 1516 1511 1508 1504
1529 1543 1545 1548 1548 1548 1555 1555 1545 1542 1544 1540 1566 1551 1524 1530 1537 1540 1545 1551 1555 1556 1558 1559 1558 1558 1558 1557 1555 1553 1551 1548 1545 1542 1538 1536 1531 1530 1526 1522 1517 1513 1509 1506
1519 1533 1549 1549 1551 1553 1557 1560 1559 1567 1593 1560 1531 1531 1530 1534 1538 1543 1546 1549 1552 1553 1555 1557 1556 1557 1556 1556 1554 1552 1549 1547 1544 1541 1538 1535 1532 1529 1526 1522 1519 1514 1510 1506
1514 1537 1550 1554 1553 1557 1555 1557 1558 1560 1548 1543 1532 1534 1509 1531 1530 1537 1540 1544 1548 1549 1551 1553 1554 1554 1554 1554 1552 1550 1547 1545 1543 1540 1536 1533 1531 1528 1526 1522 1519 1515 1511 1507
1515 1515 1550 1552 1544 1539 1556 1553 1557 1552 1544 1530 1521 1506 1501 1506 1517 1524 1532 1538 1542 1545 1548 1549 1551 1552 1552 1551 1550 1549 1546 1543 1541 1539 1535 1532 1530 1527 1524 1522 1519 1515 1511 1508
1518 1518 1535 1534 1543 1544 1540 1538 1542 1535 1536 1543 1547 1508 1509 1508 1511 1518 1526 1532 1537 1542 1545 1546 1549 1549 1549 1548 1548 1547 1544 1542 1539 1537 1533 1530 1527 1525 1523 1520 1517 1514 1511 1507
1514 1521 1529 1537 1543 1545 1539 1536 1538 1549 1544 1539 1527 1497 1512 1511 1512 1515 1521 1527 1532 1538 1540 1542 1545 1546 1546 1546 1546 1545 1543 1540 1537 1534 1530 1527 1524 1521 1519 1516 1513 1511 1509 1506
1511 1513 1508 1491 1497 1512 1529 1523 1527 1535 1531 1513 1506 1497 1510 1510 1511 1514 1518 1523 1528 1531 1534 1539 1541 1542 1542 1543 1542 1541 1539 1536 1533 1530 1527 1523 1520 1517 1513 1510 1507 1505 1504 1503
1510 1509 1518 1516 1516 1516 1514 1514 1518 1525 1511 1511 1480 1497 1492 1500 1504 1506 1513 1519 1523 1526 1529 1533 1536 1538 1538 1539 1539 1538 1536 1533 1530 1528 1525 1521 1518 1514 1510 1506 1502 1499 1498 1497
1511 1509 1518 1519 1519 1522 1523 1516 1512 1507 1511 1501 1488 1485 1487 1492 1499 1505 1507 1512 1515 1518 1522 1527 1531 1533 1534 1534 1535 1535 1533 1530 1528 1526 1524 1520 1516 1512 1508 1504 1500 1495 1492 1492
1507 1511 1513 1496 1522 1520 1510 1504 1492 1489 1493 1488 1489 1460 1479 1487 1490 1492 1497 1501 1504 1510 1515 1520 1524 1528 1529 1530 1531 1531 1529 1528 1525 1524 1522 1519 1515 1511 1507 1502 1498 1494 1490 1488
1496 1504 1507 1506 1519 1495 1462 1475 1475 1473 1470 1478 1470 1467 1472 1476 1480 1485 1488 1492 1498 1504 1510 1514 1518 1523 1525 1526 1527 1528 1526 1525 1523 1523 1522 1519 1515 1511 1506 1501 1497 1493 1489 1487
1499 1494 1509 1502 1504 1470 1461 1467 1466 1465 1454 1457 1458 1459 1470 1474 1479 1479 1481 1486 1492 1498 1505 1510 1514 1518 1521 1523 1524 1524 1524 1523 1521 1520 1520 1518 1514 1510 1505 1501 1496 1492 1488 1485
1501 1499 1492 1512 1493 1469 1450 1457 1457 1462 1455 1438 1441 1446 1458 1470 1474 1461 1471 1479 1486 1493 1500 1504 1510 1513 1516 1519 1520 1520 1521 1521 1520 1519 1519 1517 1514 1510 1505 1500 1496 1492 1488 1485
1500 1502 1483 1484 1482 1453 1441 1453 1459 1464 1433 1429 1431 1437 1449 1456 1454 1459 1464 1472 1482 1488 1494 1500 1507 1510 1513 1516 1517 1517 1519 1519 1519 1517 1517 1516 1513 1510 1506 1502 1497 1493 1489 1486
1468 1479 1479 1482 1482 1456 1437 1453 1447 1428 1426 1427 1428 1433 1440 1450 1455 1457 1463 1469 1476 1482 1488 1495 1501 1505 1508 1510 1513 1514 1516 1517 1517 1516 1516 1515 1513 1510 1507 1503 1499 1495 1491 1487
1450 1434 1443 1445 1426 1425 1421 1418 1422 1423 1425 1426 1427 1430 1438 1443 1453 1455 1459 1466 1473 1480 1485 1492 1497 1500 1505 1507 1508 1510 1512 1514 1514 1514 1514 1515 1513 1510 1507 1504 1500 1496 1493 1489
1436 1432 1430 1431 1410 1417 1419 1418 1420 1424 1425 1426 1427 1430 1434 1438 1450 1452 1459 1466 1470 1476 1480 1488 1492 1496 1500 1503 1504 1506 1509 1510 1511 1511 1512 1513 1512 1510 1508 1505 1501 1498 1495 1491
1409 1421 1417 1414 1409 1413 1410 1410 1414 1419 1423 1425 1426 1429 1433 1437 1446 1449 1454 1461 1467 1472 1476 1483 1489 1492 1496 1499 1500 1502 1506 1507 1508 1509 1510 1511 1510 1509 1508 1506 1502 1499 1496 1493
1392 1390 1395 1383 1390 1391 1393 1399 1407 1411 1415 1421 1424 1429 1433 1437 1441 1445 1452 1459 1463 1466 1473 1479 1484 1487 1493 1494 1497 1500 1502 1503 1504 1506 1508 1508 1508 1507 1506 1505 1503 1500 1497 1494